www.pogodaiklimat.ru

Погода и климат >> Архив погоды >> Россия >> Красноярский край >> Шарыпово


ПОГОДА в Шарыпово

  • Прогноз погоды в Шарыпово
  • Монитор погоды в Шарыпово

АРХИВ ПОГОДЫ в Шарыпово

Время (UTC), дата Ветер
(напр.,м/с)
 
Видим.   Явления Облачность Т
(С)
Тd
(С)
f
(%)
Тe
(С)
Тes
(С)
Комфортность P
(гПа)
Po
(гПа)
Тmin
(С)
Tmax
(С)
R
(мм)
R24
(мм)
S
(см)
00 16.08 штиль 0 20 км 10/4 600 м
[Cb cap Ac As Ci sp]
+15.5 +13.7 89 +15 +16 1008.5 971.4 +13.6
03 16.08 С 1 20 км 8/4 600 м
[Cb cap Ac As Ci sp]
+18.8 +15.4 81 +21 +24 комфорт 1007.8 971.2
06 16.08 С 3 20 км 9/4 600 м
[Cb cap Ac As Ci fib]
+21.6 +15.4 68 +25 +28 комфорт 1006.5 970.4
09 16.08 СВ 3 20 км 10/5 600 м
[Cb cap Ac As]
+22.3 +14.3 61 +26 +27 жарко 1006.4 970.3
12 16.08 ЮЗ 2 20 км 10/6 600 м
[Cb cap Ac As]
+18.8 +14.9 78 +20 +20 1008.5 971.9 +22.4
15 16.08 штиль 0 20 км 10/6 600 м
[Cb cap Ac und]
+17.1 +14.9 87 +17 +17 1009.5 972.7
18 16.08 штиль 0 20 км 10/3 600 м
[Cb cap Ac As Ci ing]
+15.9 +14.5 91 +16 +16 1009.7 972.7
21 16.08 штиль 0 20 км 10/0
[Ac As Ci sp]
+14.6 +13.9 96 +14 +14 1010.8 973.5
00 17.08 штиль 0 5000 м дымка 10/9 270 м
[St Ci fib]
+14.8 +14.1 96 +14 +15 1011.7 974.5 +14.0
03 17.08 З 2 20 км 10/6 300 м
[St Ci fib]
+17.0 +13.1 78 +17 +20 1012.3 975.3
06 17.08 З 2 20 км 10/5 600 м
[Cb cap Cs]
+21.1 +15.2 69 +24 +29 комфорт 1011.9 975.4
09 17.08 З 2 20 км 10/4 600 м
[Cb cap Cs]
+23.3 +13.9 55 +27 +30 душно 1011.3 975.1
12 17.08 С 3
{10}
20 км гроза, ливневой дождь 10/6 600 м
[Cb cap Cs]
+20.3 +15.1 72 +23 +23 комфорт 1012.0 975.4 +24.2 0.0
15 17.08 штиль 0 20 км {гроза, ливн. осадки} 10/4 600 м
[Cb cap Ac und]
+15.6 +14.0 90 +15 +15 1013.8 976.6
18 17.08 штиль 0 20 км {гроза, ливн. осадки} 8/3 600 м
[Cb cap Ac trans Ci fib]
+13.2 +12.1 93 +13 +13 1013.9 976.4
21 17.08 штиль 0 20 км 8/4 600 м
[Cb cap Ac trans Ci fib]
+11.0 +10.2 95 +10 +10 1014.1 976.2
00 18.08 штиль 0 5000 м дымка 10/6 200 м
[St Ac As Ci fib]
+10.3 +9.3 94 +9 +10 1014.5 976.6 +10.3 0.0
03 18.08 штиль 0 7000 м дымка 10/0
[Cs]
+16.3 +14.2 87 +16 +24 1013.9 976.8
06 18.08 С 3 9000 м дымка 10/3 600 м
[Cu med, cong Cs]
+21.6 +14.1 62 +24 +30 комфорт 1012.5 976.0
09 18.08 С 4 8000 м дымка 10/3 600 м
[Cu med, cong Cs]
+23.0 +11.4 48 +25 +28 комфорт 1011.2 975.0
12 18.08 С 3 20 км 10/3 600 м
[Cu med, cong Cs]
+21.0 +9.2 47 +23 +23 комфорт 1012.5 975.9 +23.3
15 18.08 штиль 0 20 км 10/0
[Cs]
+14.4 +11.0 80 +14 +14 1014.9 977.4
18 18.08 штиль 0 20 км 10/0
[Cs]
+10.2 +8.6 90 +9 +9 1016.2 978.1
21 18.08 ЮВ 1 20 км 10/0
[Cs]
+9.0 +7.5 90 +8 +8 1016.5 978.2
00 19.08 штиль 0 20 км 10/0
[Cs]
+9.0 +7.5 90 +8 +9 1017.5 979.2 +7.5
03 19.08 Ю 1 20 км 10/0
[Cc]
+18.1 +13.2 73 +19 +26 1016.4 979.4
06 19.08 Ю 1 17 км 10/3 1000 м
[Cu med, cong Ac cast Cs]
+22.2 +11.9 52 +25 +29 комфорт 1015.1 978.7
09 19.08 Ю 2 7000 м дым 10/3 600 м
[Cb cap Ac As]
+21.7 +12.2 55 +24 +26 комфорт 1015.0 978.4
12 19.08 Ю 1 8000 м дым 10/0
[Ac As]
+20.1 +12.7 62 +23 +23 комфорт 1014.9 978.2 +23.0
15 19.08 штиль 0 10 км дым {ливн. осадки} 10/8 600 м
[Cb cap Ac As]
+15.0 +13.6 91 +15 +15 1016.7 979.3
18 19.08 штиль 0 4000 м слаб. ливневой дождь 10/8 600 м
[Cb cap Ac As]
+14.2 +13.3 94 +14 +14 1016.1 978.6
21 19.08 штиль 0 10 км дым {ливн. осадки} 10/5 600 м
[Cb cap Ac As]
+14.2 +12.9 92 +14 +14 1014.9 977.4
00 20.08 штиль 0 10 км дым {ливн. осадки} 10/6 600 м
[Cb cap Ac As]
+14.4 +13.0 91 +14 +14 1014.5 977.0 +13.9 4
03 20.08 штиль 0 3700 м слаб. ливневой дождь 10/6 600 м
[Cb cap Ac As]
+16.0 +14.6 91 +16 +17 1013.7 976.6
06 20.08 ЮЗ 1 4100 м слаб. ливневой дождь 10/8 600 м
[Cb cap Ac As]
+16.9 +15.4 91 +18 +19 1013.1 976.1
09 20.08 З 4 4500 м слаб. ливневой дождь 10/10 240 м
[Cb cap]
+14.9 +13.8 93 +14 +14 1013.3 976.1
12 20.08 З 3 4800 м слаб. ливневой дождь 10/8 600 м
[Cb cap Ac As]
+13.6 +12.3 92 +12 +12 1015.0 977.4 +17.3 13
15 20.08 штиль 0 20 км {ливн. осадки} 9/3 600 м
[Cb cap Ac As Ci fib]
+12.1 +11.3 95 +11 +11 1015.5 977.8
18 20.08 штиль 0 20 км {ливн. осадки} 8/0
[Ac As Ci fib]
+10.5 +9.3 92 +10 +10 1016.3 978.3
21 20.08 штиль 0 20 км 8/0
[Ac trans Ci fib]
+9.5 +8.3 92 +9 +9 1016.1 978.0
00 21.08 Ю 1 50 км 5/1
[Cb cap Ac lent Cc]
+9.8 +8.2 90 +9 +10 1015.9 977.8 +7.7 0.4
03 21.08 Ю 1 50 км 5/3 600 м
[Cb cap Ac trans Ci fib]
+16.5 +11.5 72 +17 +22 1014.8 977.6
06 21.08 СЗ 1 20 км {гроза, ливн. осадки} 10/6 600 м
[Cb cap Ac As Ci fib]
+16.1 +11.1 72 +17 +20 1014.4 977.2
09 21.08 ЮЗ 1 50 км {ливн. осадки} 8/5 600 м
[Cb cap Ac trans Ci sp]
+18.2 +8.6 53 +19 +22 1014.1 977.0
12 21.08 В 3 50 км {ливн. осадки} 8/5 600 м
[Cb cap Ac trans Ci fib]
+17.2 +11.1 67 +17 +17 1013.5 976.5 +18.9 0.8
15 21.08 Ю 2 20 км в посл. час ливневой дождь 10/5 600 м
[Cb cap Ac trans Ci fib]
+13.0 +10.5 85 +12 +12 1014.2 976.6
18 21.08 штиль 0 20 км {ливн. осадки} 5/0
[Ac trans Ci fib]
+9.4 +8.6 95 +9 +9 1013.9 975.9
21 21.08 штиль 0 20 км 3/0
[Ci fib]
+7.1 +6.4 95 +6 +6 1013.7 975.2
00 22.08 В 1 9000 м слаб. ливневой дождь 9/6 600 м
[Cb cap Ac trans Ci fib]
+8.8 +7.5 92 +8 +8 1012.7 974.6 +6.6 3
03 22.08 В 1 50 км {ливн. осадки} 10/3 600 м
[Cb cap Ac trans Cs]
+14.7 +11.3 80 +15 +18 1011.0 973.7
06 22.08 В 2 50 км {ливн. осадки} 10/3 600 м
[Cb cap Ac trans Cc]
+20.4 +10.3 52 +23 +26 комфорт 1008.5 972.0
09 22.08 В 2 50 км 10/6 600 м
[Cb cap Cs]
+21.1 +9.6 48 +22 +25 комфорт 1007.5 971.0
12 22.08 СВ 2 20 км в посл. час ливневой дождь 10/8 600 м
[Cb cap Ac As Cs]
+15.4 +12.3 82 +15 +15 1007.3 970.3 +21.6 3
15 22.08 СЗ 3 20 км слаб. ливневой дождь 10/8 600 м
[Cb cap Ac As]
+13.8 +12.3 91 +13 +13 1007.9 970.6
18 22.08 СЗ 1 20 км слаб. ливневой дождь 8/6 600 м
[Cb cap Ac trans Ci fib]
+12.8 +11.7 93 +13 +13 1006.2 968.9

 

Местоположение метеостанции Шарыпово (Красноярский край, Россия): широта 55.53 долгота 89.20 высота над уровнем моря 319 м.

В архиве по умолчанию представлена погода в Шарыпово за последнюю неделю. Архивные данные за месяц целиком и за предыдущие месяцы, начиная с января 2011 года, Вы можете получить, выбрав интересующий диапазон дат из раскрывающегося списка и нажав кнопку "Ввод!".


*Определитесь, кто Вы:
робот инопланетянин человек

Внимание! Время в таблицах - всемирное. Для получения местного времени необходимо прибавить поправку, которая равна 7 ч.

Смотрите также архив погоды в соседних городах и на ближайших метеорологических станциях:

Погода в Ужуре (Красноярский край, Россия) (47 км)
Погода в Тисуле (Кемеровская область, Россия) (62 км)
Погода в Копьево-2 (Хакасия, Россия) (69 км)
Погода в Тяжине (Кемеровская область, Россия) (78 км)
Погода в Боготоле (Красноярский край, Россия) (81 км)
Погода в Назарово (Красноярский край, Россия) (89 км)
Погода в Ненастной (Хакасия, Россия) (90 км)
Погода в Центральном Руднике (Кемеровская область, Россия) (105 км)
Погода в Тюхтете (Красноярский край, Россия) (111 км)
Погода в Светлолобово (Красноярский край, Россия) (114 км)

Пояснения к столбцам:

Ветер - указаны скорость ветра в м/с - средняя за 10 мин, порывы в срок и между сроками (в фигурных скобках) и направление, откуда дует ветер: С - северный, СВ - северо-восточный, В - восточный, ЮВ - юго-восточный, Ю - южный, ЮЗ - юго-западный, З - западный, СЗ - северо-западный.
Видимость - горизонтальная дальность видимости в метрах или километрах. При видимости от 1 до 10 км при отсутствии осадков обычно наблюдается дымка, при ухудшении видимости до 1 км и менее - туман. В сухую погоду видимость может ухудшаться дымом, пылью или мглою.
Явления - указаны атмосферные явления, наблюдавшиеся в срок или в последний час перед сроком; фигурными скобками обозначены явления, наблюдавшиеся между сроками (за 1-3 часа до срока); квадратными скобками обозначены град или гололедные отложения с указанием их диаметра в мм.
Облачность - указаны через наклонную черту общая и нижняя облачность в баллах и высота нижней границы облаков в метрах; квадратными скобками обозначены формы облаков: Ci - перистые, Cs - перисто-слоистые, Cc - перисто-кучевые, Ac - высококучевые, As - высокослоистые, Sc - слоисто-кучевые, Ns - слоисто-дождевые, Cu - кучевые, Cb - кучево-дождевые. Подробнее классификацию облаков см. в Атласе облаков (PDF).
T - Температура воздуха - температура, измеренная на высоте 2 м над землей.
Td - Температура точки росы - температура, при понижении до которой содержащийся в воздухе водяной пар достигнет насыщения.
f - Относительная влажность воздуха - влажноcть воздуха, измеренная на высоте 2 м над землей.
Te - Эффективная температура - температура, которую ощущает одетый по сезону человек в тени. Характеристика душности погоды. При расчете учитывается влияние влажности воздуха и скорости ветра на теплоощущения человека.
Tes - Эффективная температура на солнце - температура, которую ощущает человек, с поправкой на солнечный нагрев. Характеристика знойности погоды. Зависит от высоты солнца над горизонтом, облачности и скорости ветра. Ночью, в пасмурную погоду, а также при ветре 12 м/с и более поправка равна нулю.
P - Атмосферное давление - приведенное к уровню моря атмосферное давление.
Po - Атмосферное давление - измеренное на уровне метеостанции атмосферное давление.
Tmin - Минимальная температура - минимум температуры воздуха на высоте 2 м над землей.
Tmax - Максимальная температура - максимум температуры воздуха на высоте 2 м над землей.
R - Количество осадков - Количество выпавших осадков за период времени, мм. При наведении курсора мыши на число - период времени, за который выпало указанное количество осадков.
R24 - Количество осадков - Количество выпавших осадков за 24 часа, мм.
S - Снежный покров - Высота снежного покрова, см. При наведении курсора мыши на число - состояние снежного покрова и степень покрытия местности в баллах.